Location: Bull Meadow Creek
(37.8674°N, 120.0624°W)
Time: 22:05:04
(UTC+00:00)

ATLAS 5 CENTAUR R/B - Visible Passes

Search period start: 13 September 2024 00:00
Search period end: 23 September 2024 00:00
Orbit: 411 x 1157 km, 63.3° (Epoch: 13 September)

Date Brightness Start Highest point End Pass type
(mag) Time Alt. Az. Time Alt. Az. Time Alt. Az.
13 Sep 1.2 11:49:15 59° ENE 11:49:15 59° ENE 11:52:09 10° NE visible
14 Sep 3.3 11:17:36 21° ENE 11:17:36 21° ENE 11:19:01 10° NE visible
14 Sep 3.1 12:58:25 10° WNW 12:59:42 12° NW 13:01:02 10° NNW visible
15 Sep 2.7 12:26:25 17° NW 12:26:28 17° NW 12:28:48 10° N visible
16 Sep 2.9 11:54:32 19° NNW 11:54:32 19° NNW 11:56:08 10° N visible
17 Sep 3.7 11:22:35 14° NNE 11:22:35 14° NNE 11:23:15 10° NNE visible
